20050709,000007,876713,33.159368,-120.024300,14.410,33.482,1.833,3.807
20050709,000037,876743,33.159363,-120.024187,14.408,33.483,1.642,3.290
20050709,000107,876773,33.159437,-120.024022,14.407,33.483,1.684,3.451
20050709,000137,876802,33.159542,-120.023843,14.406,33.480,1.673,3.358
20050709,000207,876832,33.159650,-120.023642,14.406,33.485,1.748,3.624
20050709,000237,876863,33.159655,-120.023475,14.405,33.483,1.912,4.272
20050709,000307,876893,33.159642,-120.023342,14.407,33.477,1.716,3.511
20050709,000337,876923,33.159883,-120.023278,14.407,33.478,1.758,3.526
20050709,000407,876952,33.160192,-120.023470,14.409,33.482,1.636,3.129
20050709,000437,876982,33.160540,-120.023678,14.406,33.481,1.827,3.690
20050709,000507,877013,33.160952,-120.023872,14.405,33.482,1.758,3.651
20050709,000537,877043,33.161408,-120.024087,14.404,33.481,1.711,3.691
20050709,000607,877073,33.161848,-120.024278,14.397,33.485,1.711,3.398
20050709,000638,877104,33.162247,-120.024440,14.387,33.487,1.833,3.722
20050709,000707,877132,33.162702,-120.024682,14.371,33.496,1.849,3.711
20050709,000737,877162,33.163138,-120.024905,14.357,33.493,1.769,3.566
20050709,000807,877193,33.163575,-120.025103,14.347,33.491,1.764,3.634
20050709,000837,877223,33.164013,-120.025335,14.335,33.488,1.689,3.337
20050709,000907,877253,33.164482,-120.025567,14.324,33.489,1.838,3.822
20050709,000938,877284,33.164918,-120.025767,14.317,33.486,1.833,3.951
20050709,001007,877312,33.165418,-120.026065,14.312,33.485,1.838,3.801
20050709,001037,877343,33.165568,-120.026825,14.309,33.485,1.870,3.944
20050709,001108,877373,33.165110,-120.027620,14.299,33.488,3.931,11.455
20050709,001137,877403,33.164535,-120.028443,14.292,33.483,3.791,10.911
20050709,001207,877433,33.163912,-120.029358,14.289,33.484,2.450,6.117
20050709,001237,877462,33.163248,-120.030292,14.296,33.480,2.408,6.112
20050709,001307,877492,33.162638,-120.031210,14.301,33.479,2.513,6.249
20050709,001337,877523,33.161988,-120.032088,14.306,33.479,2.445,6.041
20050709,001407,877553,33.161367,-120.033000,14.313,33.480,2.297,5.701
20050709,001437,877583,33.160730,-120.033898,14.313,33.481,2.250,5.184
20050709,001507,877613,33.160107,-120.034828,14.305,33.488,2.176,4.921
20050709,001537,877642,33.159457,-120.035742,14.317,33.474,2.234,4.961
20050709,001607,877672,33.158847,-120.036670,14.327,33.477,2.203,5.027
20050709,001637,877703,33.158212,-120.037600,14.332,33.479,2.334,5.498
20050709,001707,877733,33.157572,-120.038502,14.340,33.476,2.282,5.193
20050709,001737,877763,33.156940,-120.039402,14.350,33.475,2.434,5.754
20050709,001808,877794,33.156287,-120.040285,14.364,33.472,2.276,5.221
20050709,001837,877822,33.155685,-120.041173,14.374,33.473,2.366,5.519
20050709,001907,877853,33.155075,-120.042093,14.382,33.476,2.392,5.419
20050709,001937,877883,33.154472,-120.043010,14.385,33.480,2.382,5.432
20050709,002007,877913,33.153855,-120.043933,14.390,33.477,2.413,5.525
20050709,002037,877943,33.153292,-120.044822,14.397,33.479,2.371,5.967
20050709,002107,877972,33.152673,-120.045760,14.397,33.481,2.355,5.480
20050709,002137,878002,33.152028,-120.046643,14.405,33.477,2.297,5.323
20050709,002208,878034,33.151468,-120.047552,14.410,33.481,2.192,4.983
20050709,002237,878063,33.150775,-120.048517,14.417,33.482,2.139,5.300
20050709,002307,878093,33.150037,-120.049655,14.423,33.480,2.086,4.565
20050709,002338,878124,33.149262,-120.050910,14.427,33.482,1.933,3.964
20050709,002408,878154,33.148443,-120.052200,14.427,33.485,1.886,3.835
20050709,002437,878182,33.147605,-120.053577,14.430,33.483,1.811,3.716
20050709,002507,878213,33.146723,-120.054942,14.433,33.482,1.838,3.845
20050709,002538,878243,33.145912,-120.056353,14.439,33.481,1.827,3.761
20050709,002607,878273,33.145023,-120.057735,14.443,33.476,1.636,3.333
20050709,002637,878302,33.144153,-120.059177,14.452,33.476,1.663,3.419
20050709,002708,878334,33.143288,-120.060633,14.455,33.481,1.838,4.150
20050709,002737,878363,33.142402,-120.062092,14.453,33.485,1.838,4.045
20050709,002808,878393,33.141482,-120.063592,14.462,33.473,1.769,3.463
20050709,002837,878423,33.140652,-120.064988,14.464,33.477,1.843,3.624
20050709,002908,878454,33.139780,-120.066427,14.468,33.480,1.833,3.706
20050709,002937,878482,33.138937,-120.067843,14.475,33.477,1.801,3.924
20050709,003008,878514,33.138052,-120.069295,14.480,33.472,1.822,4.484
20050709,003038,878544,33.137205,-120.070770,14.478,33.478,1.700,3.777
20050709,003107,878573,33.136348,-120.072208,14.479,33.476,1.572,2.957
20050709,003137,878603,33.135502,-120.073677,14.487,33.471,1.391,2.521
20050709,003207,878633,33.134605,-120.075082,14.486,33.470,1.257,2.329
20050709,003237,878662,33.133777,-120.076518,14.489,33.469,1.278,2.889
20050709,003307,878693,33.132905,-120.077950,14.488,33.463,1.284,2.329
20050709,003337,878723,33.132092,-120.079383,14.497,33.455,1.278,2.280
20050709,003407,878753,33.131235,-120.080827,14.513,33.444,1.133,1.958
20050709,003437,878783,33.130402,-120.082265,14.529,33.442,1.107,2.050
20050709,003507,878812,33.129530,-120.083602,14.537,33.440,1.069,2.015
20050709,003537,878842,33.128737,-120.084995,14.542,33.440,1.042,1.883
20050709,003608,878874,33.127892,-120.086392,14.542,33.445,1.107,2.064
20050709,003637,878903,33.127052,-120.087807,14.547,33.433,1.020,1.739
20050709,003707,878933,33.126182,-120.089238,14.567,33.417,0.923,1.414
20050709,003737,878963,33.125378,-120.090657,14.587,33.408,0.793,1.129
20050709,003808,878994,33.124493,-120.092063,14.607,33.395,0.695,1.039
20050709,003838,879024,33.123657,-120.093473,14.634,33.380,0.629,0.942
20050709,003907,879053,33.122780,-120.094862,14.674,33.375,0.695,1.270
20050709,003938,879083,33.121920,-120.096268,14.711,33.380,0.695,1.048
20050709,004007,879113,33.121078,-120.097687,14.742,33.393,0.717,0.981
20050709,004038,879144,33.120255,-120.099112,14.752,33.417,0.733,1.042
20050709,004107,879172,33.119398,-120.100463,14.741,33.438,0.749,1.324
20050709,004138,879204,33.118537,-120.101823,14.711,33.456,0.787,1.263
20050709,004209,879235,33.117677,-120.103210,14.659,33.465,0.771,1.251
20050709,004238,879263,33.116860,-120.104520,14.639,33.458,0.798,1.375
20050709,004308,879294,33.115993,-120.105935,14.696,33.402,0.809,1.227
20050709,004338,879324,33.115127,-120.107262,14.799,33.380,0.777,1.291
20050709,004408,879354,33.114305,-120.108618,14.858,33.376,0.695,1.180
20050709,004438,879384,33.113488,-120.109987,14.988,33.324,0.684,1.031
20050709,004508,879413,33.112652,-120.111335,15.077,33.317,0.646,1.032
20050709,004538,879443,33.111900,-120.112725,15.194,33.293,0.624,0.882
20050709,004608,879474,33.111173,-120.114090,15.249,33.331,0.585,0.943
20050709,004638,879504,33.110370,-120.115485,15.307,33.332,0.618,0.980
20050709,004708,879534,33.109575,-120.116925,15.350,33.340,0.618,0.984
20050709,004738,879563,33.108770,-120.118322,15.398,33.336,0.558,0.871
20050709,004809,879595,33.107985,-120.119713,15.471,33.320,0.569,0.888
20050709,004838,879624,33.107222,-120.121093,15.506,33.342,0.591,0.922
20050709,004908,879654,33.106432,-120.122448,15.483,33.379,0.624,0.893
20050709,004938,879684,33.105657,-120.123862,15.502,33.361,0.591,0.827
20050709,005009,879715,33.104838,-120.125247,15.526,33.361,0.585,0.916
20050709,005038,879743,33.104073,-120.126678,15.553,33.357,0.580,0.904
20050709,005108,879773,33.103323,-120.128052,15.575,33.358,0.574,0.824
20050709,005138,879804,33.102542,-120.129407,15.594,33.362,0.569,0.848
20050709,005208,879834,33.101778,-120.130712,15.598,33.371,0.552,0.804
20050709,005238,879864,33.100977,-120.132138,15.609,33.368,0.569,0.865
20050709,005308,879894,33.100213,-120.133500,15.603,33.374,0.580,0.888
20050709,005338,879923,33.099382,-120.134895,15.605,33.370,0.618,0.966
20050709,005409,879955,33.098645,-120.136295,15.620,33.363,0.607,0.949
20050709,005439,879984,33.097867,-120.137665,15.632,33.367,0.580,0.890
20050709,005509,880014,33.097097,-120.139067,15.642,33.365,0.618,0.926
20050709,005538,880044,33.096285,-120.140433,15.655,33.365,0.591,0.830
20050709,005608,880073,33.095530,-120.141822,15.667,33.365,0.591,0.892
20050709,005638,880103,33.094745,-120.143218,15.674,33.368,0.574,0.765
20050709,005708,880134,33.093968,-120.144535,15.676,33.374,0.607,0.959
20050709,005738,880164,33.093207,-120.145910,15.680,33.371,0.563,0.857
20050709,005808,880194,33.092467,-120.147280,15.692,33.367,0.656,0.942
20050709,005838,880224,33.091713,-120.148598,15.720,33.351,0.574,0.878
20050709,005909,880255,33.090942,-120.149955,15.785,33.329,0.536,0.787
20050709,005938,880283,33.090168,-120.151270,15.815,33.340,0.547,0.803
20050709,010008,880314,33.089365,-120.152667,15.828,33.342,0.536,0.753
20050709,010038,880344,33.088590,-120.153977,15.874,33.324,0.508,0.674
20050709,010108,880374,33.087842,-120.155313,15.905,33.334,0.503,0.656
20050709,010138,880403,33.087062,-120.156637,15.919,33.338,0.503,0.649
20050709,010208,880433,33.086312,-120.157910,15.931,33.344,0.525,0.740
20050709,010238,880464,33.085498,-120.159288,15.936,33.348,0.519,0.708
20050709,010308,880494,33.084737,-120.160605,15.931,33.356,0.525,0.717
20050709,010338,880524,33.083917,-120.162012,15.934,33.354,0.552,0.777
20050709,010408,880554,33.083148,-120.163380,15.946,33.347,0.541,0.740
20050709,010438,880583,33.082338,-120.164762,15.951,33.351,0.536,0.790
20050709,010509,880615,33.081600,-120.166145,15.957,33.353,0.530,0.806
20050709,010539,880645,33.080808,-120.167500,15.964,33.350,0.536,0.779
20050709,010608,880674,33.080028,-120.168837,15.969,33.352,0.536,0.760
20050709,010638,880704,33.079258,-120.170165,15.970,33.355,0.541,0.781
20050709,010709,880735,33.078470,-120.171517,15.968,33.363,0.558,0.801
20050709,010739,880765,33.077677,-120.172898,15.957,33.370,0.563,0.758
20050709,010808,880793,33.076873,-120.174268,15.938,33.375,0.547,0.765
20050709,010838,880824,33.076112,-120.175645,15.924,33.377,0.547,0.826
20050709,010909,880854,33.075333,-120.176998,15.917,33.367,0.541,0.722
20050709,010938,880884,33.074570,-120.178345,15.916,33.364,0.563,0.802
20050709,011008,880913,33.073795,-120.179735,15.916,33.364,0.552,0.750
20050709,011038,880943,33.073008,-120.181082,15.915,33.364,0.618,0.987
20050709,011109,880975,33.072208,-120.182427,15.911,33.364,0.624,0.974
20050709,011139,881004,33.071440,-120.183762,15.902,33.367,0.618,0.899
20050709,011209,881034,33.070672,-120.185115,15.885,33.378,0.585,0.819
20050709,011239,881065,33.069907,-120.186482,15.858,33.382,0.618,0.904
20050709,011309,881095,33.069112,-120.187840,15.834,33.386,0.656,0.882
20050709,011338,881123,33.068340,-120.189202,15.807,33.389,0.602,0.761
20050709,011408,881154,33.067585,-120.190558,15.789,33.387,0.596,0.846
20050709,011439,881184,33.066830,-120.191942,15.743,33.403,0.602,0.852
20050709,011508,881214,33.066062,-120.193290,15.698,33.412,0.607,0.803
20050709,011539,881245,33.065305,-120.194655,15.648,33.411,0.635,0.829
20050709,011608,881273,33.064558,-120.196038,15.630,33.400,0.580,0.901
20050709,011639,881305,33.063745,-120.197418,15.608,33.397,0.629,0.909
20050709,011709,881334,33.062993,-120.198705,15.568,33.410,0.624,0.857
20050709,011738,881364,33.062237,-120.200035,15.519,33.418,0.613,0.784
20050709,011808,881394,33.061468,-120.201372,15.459,33.429,0.646,0.994
20050709,011838,881423,33.060702,-120.202740,15.449,33.400,0.706,1.112
20050709,011908,881453,33.059912,-120.204107,15.458,33.379,0.689,0.985
20050709,011938,881484,33.059115,-120.205468,15.462,33.380,0.662,0.945
20050709,012009,881514,33.058327,-120.206852,15.457,33.386,0.635,0.949
20050709,012039,881544,33.057523,-120.208205,15.454,33.383,0.684,1.072
20050709,012109,881575,33.056695,-120.209640,15.454,33.380,0.711,1.131
20050709,012139,881605,33.055880,-120.211018,15.459,33.377,0.695,1.063
20050709,012209,881635,33.055078,-120.212400,15.466,33.376,0.662,1.030
20050709,012239,881664,33.054358,-120.213755,15.473,33.377,0.635,0.848
20050709,012309,881694,33.053585,-120.215212,15.460,33.386,0.640,0.987
20050709,012339,881725,33.052843,-120.216635,15.438,33.395,0.684,1.105
20050709,012409,881755,33.052092,-120.218035,15.421,33.394,0.755,1.227
20050709,012440,881785,33.051320,-120.219527,15.417,33.388,0.695,0.984
20050709,012510,881816,33.050578,-120.220943,15.420,33.380,0.733,1.139
20050709,012539,881844,33.049870,-120.222330,15.430,33.375,0.678,0.966
20050709,012610,881876,33.049115,-120.223855,15.435,33.375,0.700,0.992
20050709,012639,881905,33.048380,-120.225238,15.440,33.375,0.717,1.135
20050709,012710,881935,33.047700,-120.226633,15.442,33.378,0.684,0.932
20050709,012740,881965,33.046975,-120.228090,15.435,33.378,0.706,0.959
20050709,012810,881996,33.046303,-120.229442,15.431,33.383,0.711,1.114
20050709,012840,882026,33.045647,-120.230850,15.421,33.383,0.695,1.006
20050709,012910,882056,33.044957,-120.232270,15.416,33.382,0.695,0.956
20050709,012939,882085,33.044267,-120.233633,15.415,33.380,0.689,0.880
20050709,013010,882115,33.043608,-120.235052,15.424,33.366,0.673,0.871
20050709,013040,882146,33.042947,-120.236435,15.445,33.361,0.667,0.914
20050709,013110,882176,33.042243,-120.237852,15.468,33.365,0.689,0.983
20050709,013139,882204,33.041535,-120.239195,15.474,33.373,0.700,1.021
20050709,013210,882236,33.040838,-120.240623,15.460,33.379,0.678,0.996
20050709,013240,882265,33.040182,-120.241955,15.452,33.380,0.689,0.973
20050709,013310,882295,33.039457,-120.243388,15.449,33.377,0.733,0.978
20050709,013340,882326,33.038727,-120.244750,15.452,33.375,0.733,0.932
20050709,013411,882356,33.038078,-120.246147,15.456,33.372,0.717,0.928
20050709,013440,882386,33.037397,-120.247573,15.469,33.365,0.733,0.995
20050709,013510,882416,33.036687,-120.248977,15.471,33.369,0.711,0.944
20050709,013541,882447,33.035972,-120.250443,15.444,33.387,0.717,0.964
20050709,013611,882477,33.035263,-120.251853,15.411,33.395,0.771,1.132
20050709,013641,882506,33.034543,-120.253242,15.395,33.387,0.793,1.247
20050709,013711,882536,33.033842,-120.254620,15.388,33.381,0.787,1.056
20050709,013741,882567,33.033130,-120.256017,15.385,33.378,0.744,1.039
20050709,013811,882597,33.032425,-120.257418,15.390,33.371,0.689,0.959
20050709,013842,882627,33.031708,-120.258832,15.396,33.370,0.749,1.191
20050709,013911,882657,33.031027,-120.260188,15.386,33.377,0.793,1.259
20050709,013941,882686,33.030317,-120.261668,15.372,33.385,0.755,1.162
20050709,014011,882716,33.029640,-120.263087,15.357,33.388,0.738,0.998
20050709,014041,882747,33.028868,-120.264578,15.332,33.399,0.695,0.863
20050709,014111,882777,33.028118,-120.266037,15.294,33.405,0.744,0.977
20050709,014141,882807,33.027542,-120.267472,15.245,33.411,0.798,1.160
20050709,014211,882836,33.026815,-120.268870,15.207,33.408,0.885,1.312
20050709,014242,882868,33.026138,-120.270283,15.194,33.393,0.880,1.327
20050709,014311,882897,33.025457,-120.271707,15.191,33.383,0.869,1.197
20050709,014342,882927,33.024770,-120.273123,15.185,33.381,0.853,1.177
20050709,014412,882957,33.024053,-120.274563,15.193,33.371,0.842,1.311
20050709,014441,882987,33.023353,-120.275992,15.201,33.367,0.880,1.288
20050709,014511,883016,33.022650,-120.277445,15.206,33.369,0.891,1.289
20050709,014542,883048,33.021952,-120.278880,15.212,33.369,0.923,1.487
20050709,014612,883078,33.021257,-120.280373,15.217,33.372,0.891,1.417
20050709,014642,883107,33.020587,-120.281803,15.217,33.374,0.901,1.295
20050709,014712,883138,33.019893,-120.283233,15.221,33.368,0.874,1.171
20050709,014742,883168,33.019215,-120.284657,15.225,33.370,0.885,1.293
20050709,014812,883198,33.018573,-120.286028,15.232,33.368,0.923,1.433
20050709,014842,883228,33.017887,-120.287450,15.235,33.374,0.966,1.538
20050709,014912,883257,33.017218,-120.288862,15.232,33.379,0.972,1.427
20050709,014942,883287,33.016522,-120.290322,15.234,33.375,0.912,1.384
20050709,015012,883318,33.015850,-120.291708,15.246,33.367,0.972,1.553
20050709,015042,883348,33.015187,-120.293058,15.268,33.371,0.977,1.475
20050709,015112,883378,33.014540,-120.294475,15.277,33.380,1.015,1.538
20050709,015142,883408,33.013930,-120.295897,15.274,33.393,1.020,1.503
20050709,015212,883437,33.013297,-120.297318,15.260,33.399,0.983,1.401
20050709,015242,883467,33.012647,-120.298698,15.251,33.402,0.983,1.362
20050709,015312,883498,33.012013,-120.300107,15.259,33.390,1.004,1.393
20050709,015342,883528,33.011345,-120.301525,15.282,33.381,1.058,1.491
20050709,015412,883558,33.010697,-120.302963,15.299,33.385,1.112,1.590
20050709,015442,883587,33.010080,-120.304373,15.311,33.390,1.117,1.632
20050709,015512,883617,33.009395,-120.305842,15.319,33.394,1.107,1.592
20050709,015542,883648,33.008737,-120.307193,15.321,33.401,1.107,1.584
20050709,015612,883678,33.008120,-120.308583,15.324,33.397,1.107,1.589
20050709,015643,883708,33.007457,-120.310027,15.328,33.399,1.096,1.583
20050709,015713,883739,33.006787,-120.311462,15.337,33.395,1.128,1.651
20050709,015742,883767,33.006143,-120.312850,15.347,33.396,1.133,1.633
20050709,015813,883799,33.005455,-120.314310,15.360,33.391,1.123,1.628
20050709,015843,883829,33.004805,-120.315742,15.368,33.390,1.080,1.553
20050709,015913,883858,33.004148,-120.317180,15.366,33.393,1.112,1.599
20050709,015943,883889,33.003493,-120.318612,15.364,33.395,1.063,1.533
20050709,020013,883919,33.002867,-120.320005,15.359,33.395,1.074,1.623
20050709,020043,883949,33.002217,-120.321490,15.349,33.397,1.042,1.468
20050709,020113,883979,33.001588,-120.322907,15.336,33.404,1.074,1.523
20050709,020143,884008,33.000965,-120.324285,15.335,33.397,1.063,1.521
20050709,020213,884038,33.000340,-120.325770,15.342,33.389,1.053,1.587
20050709,020243,884069,32.999715,-120.327203,15.344,33.387,1.053,1.663
20050709,020313,884099,32.999103,-120.328572,15.344,33.387,1.053,1.519
20050709,020343,884129,32.998468,-120.329997,15.339,33.387,1.026,1.450
20050709,020413,884159,32.997836,-120.331408,15.332,33.387,0.993,1.353
20050709,020443,884188,32.997246,-120.332825,15.321,33.389,0.983,1.319
20050709,020514,884220,32.996723,-120.334272,15.304,33.386,0.966,1.299
20050709,020543,884249,32.996156,-120.335707,15.287,33.381,0.977,1.394
20050709,020613,884279,32.995571,-120.337135,15.274,33.377,0.961,1.454
20050709,020643,884309,32.995026,-120.338610,15.273,33.369,0.928,1.354
20050709,020714,884340,32.994445,-120.340098,15.277,33.364,0.907,1.282
20050709,020743,884368,32.993846,-120.341577,15.285,33.358,0.912,1.228
20050709,020813,884399,32.993225,-120.343035,15.293,33.357,0.891,1.177
20050709,020843,884429,32.992668,-120.344488,15.307,33.354,0.907,1.180
20050709,020913,884459,32.991928,-120.345838,15.316,33.361,0.891,1.159
20050709,020943,884489,32.991220,-120.347150,15.324,33.358,0.896,1.198
20050709,021013,884518,32.990791,-120.348012,15.327,33.284,0.917,1.217
20050709,021044,884550,32.990560,-120.348485,15.325,33.368,0.891,1.162
20050709,021114,884580,32.990390,-120.348743,15.325,33.365,0.901,1.191
20050709,021144,884609,32.990286,-120.348905,15.324,33.359,0.896,1.228
20050709,021214,884639,32.990186,-120.349022,15.329,33.330,0.912,1.310
20050709,021245,884670,32.990143,-120.349113,15.338,33.273,0.901,1.295
20050709,021314,884700,32.990143,-120.349207,15.338,33.241,0.912,1.230
20050709,021345,884731,32.990145,-120.349287,15.334,33.259,0.917,1.343
20050709,021414,884759,32.990158,-120.349367,15.325,33.305,0.917,1.287
20050709,021445,884791,32.990173,-120.349460,15.326,33.308,0.923,1.237
20050709,021515,884821,32.990176,-120.349518,15.323,33.336,0.939,1.261
20050709,021545,884850,32.990181,-120.349563,15.325,33.348,0.907,1.179
20050709,021616,884882,32.990148,-120.349620,15.324,33.355,0.939,1.237
20050709,021645,884911,32.990086,-120.349632,15.324,33.362,0.907,1.256
20050709,021715,884941,32.990000,-120.349597,15.324,33.362,0.912,1.278
20050709,021745,884971,32.989898,-120.349590,15.326,33.364,0.901,1.261
20050709,021815,885001,32.989785,-120.349587,15.328,33.361,0.917,1.265
20050709,021845,885030,32.989690,-120.349542,15.329,33.361,0.923,1.239
20050709,021915,885061,32.989543,-120.349518,15.330,33.364,0.907,1.167
20050709,021945,885091,32.989343,-120.349528,15.327,33.367,0.896,1.148
20050709,022015,885121,32.989233,-120.349595,15.324,33.368,0.912,1.168
20050709,022045,885151,32.989111,-120.349725,15.323,33.372,0.901,1.149
20050709,022115,885180,32.989031,-120.349828,15.326,33.366,0.907,1.150
20050709,022146,885212,32.989001,-120.349820,15.329,33.371,0.917,1.167
20050709,022216,885242,32.989023,-120.349768,15.330,33.368,0.928,1.184
20050709,022246,885271,32.989095,-120.349637,15.334,33.371,0.934,1.193
20050709,022316,885301,32.989145,-120.349522,15.333,33.372,0.896,1.121
20050709,022346,885332,32.989245,-120.349388,15.330,33.373,0.901,1.141
20050709,022416,885362,32.989366,-120.349345,15.329,33.374,0.923,1.251
20050709,022446,885392,32.989463,-120.349343,15.331,33.372,0.912,1.211
20050709,022516,885421,32.989556,-120.349362,15.332,33.373,0.907,1.169
20050709,022547,885453,32.989598,-120.349350,15.333,33.372,0.901,1.150
20050709,022616,885482,32.989610,-120.349293,15.332,33.371,0.891,1.143
20050709,022647,885512,32.989603,-120.349208,15.326,33.377,0.896,1.207
20050709,022717,885542,32.989568,-120.349073,15.323,33.375,0.912,1.238
20050709,022746,885572,32.989526,-120.348930,15.321,33.374,0.907,1.260
20050709,022816,885601,32.989543,-120.348747,15.320,33.373,0.928,1.335
20050709,022847,885633,32.989596,-120.348603,15.319,33.372,0.912,1.296
20050709,022916,885662,32.989731,-120.348495,15.320,33.372,0.896,1.253
20050709,022946,885692,32.989878,-120.348505,15.316,33.372,0.901,1.193
20050709,023016,885722,32.990033,-120.348577,15.320,33.369,0.907,1.239
20050709,023047,885753,32.990216,-120.348652,15.326,33.367,0.928,1.314
20050709,023117,885783,32.990438,-120.348758,15.327,33.371,0.912,1.244
20050709,023146,885811,32.990653,-120.348877,15.326,33.373,0.907,1.170
20050709,023216,885842,32.990828,-120.348978,15.324,33.377,0.917,1.187
20050709,023246,885872,32.991018,-120.349055,15.325,33.372,0.923,1.208
20050709,023316,885902,32.991210,-120.349117,15.326,33.373,0.912,1.211
20050709,023347,885933,32.991371,-120.349185,15.322,33.376,0.923,1.272
20050709,023417,885963,32.991561,-120.349283,15.316,33.379,0.896,1.211
20050709,023447,885993,32.991715,-120.349365,15.314,33.374,0.912,1.244
20050709,023516,886022,32.991818,-120.349378,15.311,33.376,0.928,1.275
20050709,023547,886052,32.991915,-120.349362,15.307,33.376,0.901,1.221
20050709,023617,886083,32.991990,-120.349355,15.299,33.375,0.923,1.240
20050709,023647,886113,32.992040,-120.349352,15.293,33.373,0.917,1.244
20050709,023717,886143,32.992046,-120.349338,15.290,33.370,0.917,1.238
20050709,023747,886173,32.992020,-120.349343,15.286,33.369,0.917,1.232
20050709,023817,886202,32.992006,-120.349358,15.287,33.368,0.917,1.233
20050709,023847,886233,32.992006,-120.349365,15.284,33.367,0.907,1.216
20050709,023917,886263,32.992015,-120.349375,15.282,33.365,0.901,1.202
20050709,023947,886293,32.992040,-120.349352,15.280,33.367,0.917,1.231
20050709,024017,886323,32.992058,-120.349347,15.277,33.366,0.896,1.181
20050709,024047,886352,32.992076,-120.349310,15.277,33.366,0.901,1.175
20050709,024117,886382,32.992088,-120.349282,15.277,33.365,0.896,1.162
20050709,024147,886413,32.992080,-120.349312,15.273,33.366,0.907,1.142
20050709,024217,886443,32.992048,-120.349323,15.273,33.365,0.901,1.175
20050709,024247,886473,32.992028,-120.349305,15.271,33.365,0.912,1.177
20050709,024317,886503,32.992035,-120.349250,15.272,33.362,0.912,1.168
20050709,024347,886532,32.992060,-120.349198,15.270,33.365,0.917,1.200
20050709,024417,886562,32.992071,-120.349168,15.268,33.362,0.896,1.165
20050709,024447,886593,32.992070,-120.349145,15.268,33.361,0.907,1.171
20050709,024517,886623,32.992051,-120.349135,15.266,33.364,0.907,1.167
20050709,024547,886653,32.992078,-120.349148,15.265,33.364,0.907,1.156
20050709,024618,886684,32.992116,-120.349172,15.264,33.363,0.891,1.102